Jamestown, NY

12:04 AM EST on December 10, 2019 (GMT -0500)
Chautauqua County-Jamestown

Weather History for KJHW - October, 2019

Change the Weather History Date:

Friday, October 4, 2019

  Actual Average Record
Temperature  
Mean Temperature 47 °F -  
Max Temperature 55 °F 63 °F 78 °F (1982)
Min Temperature 39 °F 39 °F 23 °F (1974)
Degree Days  
Heating Degree Days 18    
Moisture  
Dew Point 44 °F    
Average Humidity 87    
Maximum Humidity 94    
Minimum Humidity 73    
Precipitation  
Precipitation 0.07 in - - ()
Sea Level Pressure  
Sea Level Pressure 30.27 in    
Wind  
Wind Speed 9 mph (North)    
Max Wind Speed 16 mph    
Max Gust Speed 23 mph    
Visibility 10 miles    
Events Rain    
Averages and records for this station are not official NWS values.
T = Trace of Precipitation, MM = Missing Value Source: NWS Daily Summary

Daily Weather History Graph

Daily Weather History Graph

Search for Another Location

Airport or City:

Astronomy

Oct. 04, 2019 Rise Set
Actual Time 7:17 AM EDT 6:53 PM EDT
Civil Twilight 6:49 AM EDT 7:21 PM EDT
Nautical Twilight 6:16 AM EDT 7:54 PM EDT
Astronomical Twilight 5:43 AM EDT 8:26 PM EDT
Moon 1:53 PM EDT (10/4) 11:15 PM EDT (10/4)
Length of Visible Light 12h 32m
Length of Day
11h 36m
Waxing Crescent, 39% of the Moon is Illuminated
Oct 4
Waxing Crescent
Oct 5
First Quarter
Oct 13
Full
Oct 21
Last Quarter
Oct 27
New

Hourly Weather History & Observations

Time (EDT) Temp. Windchill Dew Point Humidity Pressure Visibility Wind Dir Wind Speed Gust Speed Precip Events Conditions
12:56 AM 55.0 °F - 52.0 °F 89% 30.07 in 10.0 mi NW 10.4 mph - N/A   Overcast
1:56 AM 55.0 °F - 52.0 °F 89% 30.08 in 10.0 mi WNW 6.9 mph - N/A   Overcast
2:04 AM 55.4 °F - 53.6 °F 94% 30.07 in 10.0 mi WNW 6.9 mph - N/A   Overcast
2:56 AM 55.0 °F - 52.0 °F 89% 30.07 in 10.0 mi NW 9.2 mph - N/A   Overcast
3:56 AM 55.0 °F - 52.0 °F 89% 30.08 in 10.0 mi NW 6.9 mph - N/A   Overcast
4:41 AM 53.6 °F - 51.8 °F 94% 30.09 in 10.0 mi NNW 10.4 mph - 0.00 in   Overcast
4:56 AM 54.0 °F - 51.1 °F 90% 30.10 in 10.0 mi NNW 11.5 mph - 0.00 in   Overcast
5:08 AM 53.6 °F - 51.8 °F 94% 30.10 in 10.0 mi NW 9.2 mph - N/A   Overcast
5:28 AM 53.6 °F - 50.0 °F 88% 30.10 in 10.0 mi NNW 12.7 mph - 0.00 in Rain Light Rain
5:56 AM 53.1 °F - 50.0 °F 89% 30.12 in 10.0 mi NW 11.5 mph - 0.00 in Rain Light Rain
6:01 AM 53.6 °F - 50.0 °F 88% 30.11 in 10.0 mi NNW 16.1 mph 23.0 mph 0.00 in Rain Light Rain
6:56 AM 52.0 °F - 50.0 °F 93% 30.15 in 10.0 mi NNW 6.9 mph - 0.00 in Rain Light Rain
7:56 AM 46.9 °F - 45.0 °F 93% 30.21 in 10.0 mi North 9.2 mph - 0.07 in   Overcast
8:56 AM 46.9 °F - 45.0 °F 93% 30.24 in 10.0 mi North 9.2 mph - N/A   Overcast
9:38 AM 46.4 °F 41.9 °F 44.6 °F 93% 30.24 in 10.0 mi North 9.2 mph - N/A   Overcast
9:56 AM 46.9 °F - 44.1 °F 90% 30.27 in 10.0 mi North 10.4 mph - N/A   Overcast
10:17 AM 46.4 °F 41.5 °F 44.6 °F 93% 30.25 in 10.0 mi NNE 10.4 mph - N/A   Overcast
10:56 AM 45.0 °F 39.3 °F 43.0 °F 93% 30.30 in 10.0 mi NNE 11.5 mph 17.3 mph 0.00 in Rain Light Rain
11:34 AM 44.6 °F 39.2 °F 41.0 °F 87% 30.29 in 10.0 mi NNE 10.4 mph - 0.00 in   Overcast
11:56 AM 45.0 °F 39.7 °F 41.0 °F 86% 30.32 in 10.0 mi North 10.4 mph - 0.00 in   Overcast
12:27 PM 46.4 °F 41.5 °F 39.2 °F 76% 30.30 in 10.0 mi North 10.4 mph - N/A   Overcast
12:56 PM 46.9 °F - 39.9 °F 77% 30.34 in 10.0 mi North 9.2 mph - N/A   Overcast
1:56 PM 46.0 °F 41.9 °F 39.9 °F 79% 30.35 in 10.0 mi North 8.1 mph - N/A   Overcast
2:56 PM 46.0 °F 41.9 °F 39.0 °F 76% 30.35 in 6.0 mi North 8.1 mph - N/A   Haze
3:56 PM 46.0 °F 41.4 °F 37.9 °F 73% 30.35 in 10.0 mi NE 9.2 mph - N/A   Overcast
4:56 PM 46.0 °F 41.4 °F 39.0 °F 76% 30.36 in 10.0 mi NE 9.2 mph - N/A   Overcast
5:56 PM 46.0 °F 42.5 °F 37.9 °F 73% 30.36 in 10.0 mi NE 6.9 mph - N/A   Overcast
6:56 PM 45.0 °F 42.6 °F 37.9 °F 76% 30.38 in 10.0 mi NNE 4.6 mph - N/A   Overcast
7:56 PM 43.0 °F 39.5 °F 39.0 °F 86% 30.39 in 10.0 mi North 5.8 mph - N/A   Overcast
8:14 PM 42.8 °F 41.1 °F 39.2 °F 87% 30.35 in 10.0 mi North 3.5 mph - N/A   Scattered Clouds
8:39 PM 42.8 °F 41.1 °F 39.2 °F 87% 30.36 in 10.0 mi North 3.5 mph - N/A   Mostly Cloudy
8:56 PM 43.0 °F 40.3 °F 39.0 °F 86% 30.42 in 10.0 mi North 4.6 mph - N/A   Overcast
9:56 PM 41.0 °F 37.1 °F 37.9 °F 89% 30.44 in 10.0 mi NNE 5.8 mph - N/A   Mostly Cloudy
10:03 PM 41.0 °F 36.4 °F 37.4 °F 87% 30.39 in 10.0 mi NNE 6.9 mph - N/A   Partly Cloudy
10:32 PM 39.2 °F 33.6 °F 37.4 °F 93% 30.39 in 10.0 mi NNE 8.1 mph - N/A   Mostly Cloudy
10:56 PM 41.0 °F 35.8 °F 37.0 °F 86% 30.45 in 10.0 mi NNE 8.1 mph - N/A   Overcast
11:22 PM 39.2 °F 34.2 °F 37.4 °F 93% 30.39 in 10.0 mi NE 6.9 mph - N/A   Scattered Clouds
11:56 PM 39.0 °F 34.0 °F 37.0 °F 93% 30.44 in 10.0 mi NE 6.9 mph - N/A   Clear